YAOGAN 30 R (45460 NORAD) Tracking and Keplerian Element Data

This shows tracking and keplerian element data for the satellite.

Feedback or suggestion? Click here.




ElementValue
Catalog45460
NameYAOGAN 30 R
Epoch Orbit1576
Epoch Day189.78789696
Epoch Year2020
RAAN302.9286
Inclination34.9999
Eccentricity0.0005595
Argument of Perigee306.2829
Mean Anonmoly53.7355
Mean Motion14.89767429
Decay Rate7.1E-07
L11 45460U 20021A 20189.78789696 .00000071 00000-0 10002-4 0 9999
L22 45460 34.9999 302.9286 0005595 306.2829 53.7355 14.89767429 15762

Live tracking and technical data element details for YAOGAN 30 R (NORAD 45460). YAOGAN 30 R can be tracked NOW for your location showing map with azimuth and elevation plus other details from your city location.

Track the satellite on the map from your city or location and see movement details for azimuth, elevation, latitude, longitude, range, height, and movement on the map or in text.







IsCatalogInMostPopularTable: catalog: 45460, numindb: 19
Update: records affected: 1



GetName: 45460 YAOGAN 30 R

Hit Count: updated at: Fri, 10 Jul 2020 03:00:45 GMT